User: anonymous   Login
Location: Caltech
(34.1382°N, 118.1253°W)
Time: 00:29:45
(UTC-08:00)
Language:

UOSAT-12 - Orbit

View from above orbital plane
View from above orbital plane
View from above satellite
View from above satellite

Ground track
Ground track

The orbit data is extracted from the following two-line orbital elements,

1 25693U 99021A   14351.47173638  .00000886  00000-0  13292-3 0  6932
2 25693 064.5573 057.9572 0049305 264.6536 181.1008 14.80212600845049
Epoch (UTC): 17 December 2014 11:19:18
Eccentricity: 0.0049305
inclination: 64.5573°
perigee height: 594 km
apogee height: 663 km
right ascension of ascending node: 57.9572°
argument of perigee: 264.6536°
revolutions per day: 14.80212600
mean anomaly at epoch: 181.1008°
orbit number at epoch: 84504

The dashed part of the orbit path shows where the satellite is in the earth's shadow,  

DLR